Location: Winterland
(47.1574°N, 55.3067°W)
Time: 14:57:16
(UTC+00:00)

Tiangong - Pass Details

Date: 16 August 2022
Orbit: 377 x 382 km, 41.5° (Epoch: 27 September)

Event Time Altitude Azimuth Distance (km) Brightness Sun altitude
Rises 00:17:59 0° 222° (SW) 2,229 1.8 -13.4°
Reaches altitude 10° 00:20:35 10° 199° (SSW) 1,379 0.5 -13.8°
Enters shadow 00:21:16 13° 188° (S) 1,226 0.1 -13.9°
